KC2DUX Weather Reports


Display with metric or nautical units.
time (UTC)temp
F
wind
direction
speed
MPH
gust
MPH
rain 1hr
in
rain 24hr
in
rain mn
in
humidity
%
barometer
mb
20260503051027 50 342 2.0 9.0 0.00 0.00 0.00 54 1010.6
20260503050528 50 9 2.0 6.0 0.00 0.00 0.00 55 1010.7
20260503050025 51 334 2.0 6.0 0.00 0.00 0.00 54 1010.8
20260503045524 51 20 1.0 6.0 0.00 0.00 0.00 54 1010.8
20260503045025 51 13 2.0 6.0 0.00 0.00 0.00 54 1010.8
20260503044522 51 19 2.0 9.0 0.00 0.00 0.00 54 1010.8
20260503044021 51 355 2.0 9.0 0.00 0.00 0.00 54 1010.9
20260503043521 51 15 1.0 5.0 0.00 0.00 0.00 54 1010.9
20260503043023 51 360 2.0 5.0 0.00 0.00 0.00 53 1010.8
20260503042518 51 24 1.0 6.0 0.00 0.00 0.00 53 1011.0
20260503042017 51 32 1.0 6.0 0.00 0.00 0.00 53 1011.1
20260503041524 51 350 1.0 6.0 0.00 0.00 0.00 53 1011.1
20260503041014 51 24 0.0 6.0 0.00 0.00 0.00 54 1011.0
20260503040515 51 15 2.0 7.0 0.00 0.00 0.00 53 1011.0
20260503040016 51 28 2.0 5.0 0.00 0.00 0.00 54 1011.0
20260503035511 51 33 0.0 6.0 0.00 0.00 0.00 54 1011.0
20260503035011 51 52 2.0 6.0 0.00 0.00 0.00 53 1011.1
20260503034511 51 5 2.0 5.0 0.00 0.00 0.00 53 1011.0
20260503034011 52 5 1.0 8.0 0.00 0.00 0.00 54 1011.1
20260503033511 52 342 2.0 8.0 0.00 0.00 0.00 53 1011.2
20260503033011 52 10 1.0 5.0 0.00 0.00 0.00 54 1011.1
20260503032511 52 13 1.0 5.0 0.00 0.00 0.00 53 1011.1
20260503032010 52 44 1.0 6.0 0.00 0.00 0.00 54 1011.1
20260503031510 52 355 2.0 6.0 0.00 0.00 0.00 54 1011.2
20260503031010 52 44 2.0 5.0 0.00 0.00 0.00 54 1011.1
20260503030511 52 26 2.0 5.0 0.00 0.00 0.00 54 1011.0
20260503030015 52 19 0.0 5.0 0.00 0.00 0.00 55 1011.2
20260503025509 52 17 1.0 5.0 0.00 0.00 0.00 54 1011.0
20260503025009 52 9 1.0 6.0 0.00 0.00 0.00 54 1011.0
20260503024509 52 323 1.0 6.0 0.00 0.00 0.00 54 1010.9
20260503024011 52 29 2.0 5.0 0.00 0.00 0.00 54 1011.0
20260503023509 52 340 1.0 8.0 0.00 0.00 0.00 55 1011.0
20260503023010 52 5 2.0 8.0 0.00 0.00 0.00 54 1011.2
20260503022508 52 28 1.0 5.0 0.00 0.00 0.00 54 1011.2
20260503022008 52 339 1.0 5.0 0.00 0.00 0.00 54 1011.2
20260503021510 52 32 1.0 5.0 0.00 0.00 0.00 54 1011.1
20260503021008 52 236 1.0 5.0 0.00 0.00 0.00 54 1011.0
20260503020508 52 21 1.0 5.0 0.00 0.00 0.00 55 1011.1
20260503020007 52 22 1.0 4.0 0.00 0.00 0.00 55 1011.1
20260503015507 52 15 0.0 4.0 0.00 0.00 0.00 55 1010.9
20260503015006 52 321 0.0 4.0 0.00 0.00 0.00 54 1010.9
20260503014506 53 24 0.0 5.0 0.00 0.00 0.00 54 1010.9
20260503014006 53 5 0.0 10.0 0.00 0.00 0.00 54 1011.1
20260503013507 53 355 1.0 10.0 0.00 0.00 0.00 54 1011.0
20260503013013 53 344 0.0 4.0 0.00 0.00 0.00 53 1010.9
20260503012505 53 355 1.0 4.0 0.00 0.00 0.00 53 1010.8
20260503012006 53 26 1.0 3.0 0.00 0.00 0.00 52 1010.7
20260503011506 53 35 0.0 1.0 0.00 0.00 0.00 53 1010.9
20260503011005 54 33 0.0 2.0 0.00 0.00 0.00 51 1010.8
20260503010505 54 24 0.0 3.0 0.00 0.00 0.00 51 1010.7
20260503010005 54 22 1.0 3.0 0.00 0.00 0.00 50 1010.5
20260503005505 54 5 0.0 3.0 0.00 0.00 0.00 51 1010.3
20260503005004 54 360 0.0 2.0 0.00 0.00 0.00 49 1010.4
20260503004506 55 34 0.0 5.0 0.00 0.00 0.00 50 1010.6
20260503004003 55 40 1.0 5.0 0.00 0.00 0.00 50 1010.7
20260503003503 55 304 1.0 3.0 0.00 0.00 0.00 49 1010.6
20260503003103 55 305 0.0 3.0 0.00 0.00 0.00 49 1010.5
20260503002503 55 34 1.0 4.0 0.00 0.00 0.00 48 1010.3
20260503002003 56 5 1.0 3.0 0.00 0.00 0.00 48 1010.1
20260503001503 56 331 0.0 3.0 0.00 0.00 0.00 48 1010.2
20260503001002 56 348 0.0 3.0 0.00 0.00 0.00 48 1010.2
20260503000504 56 19 1.0 2.0 0.00 0.00 0.00 48 1010.1
20260503000002 56 355 0.0 3.0 0.00 0.00 0.00 47 1010.1
20260502235501 56 5 0.0 3.0 0.00 0.00 0.00 47 1010.1
20260502235002 57 26 0.0 2.0 0.00 0.00 0.00 47 1009.9
20260502234501 57 18 0.0 2.0 0.00 0.00 0.00 46 1010.1
20260502234002 57 16 0.0 4.0 0.00 0.00 0.00 48 1009.9
20260502233501 57 348 1.0 4.0 0.00 0.00 0.00 46 1010.0
20260502233003 57 355 1.0 4.0 0.00 0.00 0.00 45 1010.0
20260502232600 58 32 1.0 3.0 0.00 0.00 0.00 45 1010.0
20260502232100 58 34 0.0 4.0 0.00 0.00 0.00 45 1010.0
20260502231600 58 32 1.0 4.0 0.00 0.00 0.00 46 1010.1
20260502231102 58 294 1.0 4.0 0.00 0.00 0.00 45 1010.1
20260502230603 58 330 0.0 5.0 0.00 0.00 0.00 46 1010.1
20260502225559 58 311 1.0 4.0 0.00 0.00 0.00 44 1010.1
20260502225059 58 319 1.0 4.0 0.00 0.00 0.00 44 1010.0
20260502224559 58 325 1.0 4.0 0.00 0.00 0.00 44 1010.1
20260502224059 58 338 0.0 3.0 0.00 0.00 0.00 44 1010.0
20260502223559 59 13 1.0 4.0 0.00 0.00 0.00 43 1009.9
20260502223107 59 33 1.0 6.0 0.00 0.00 0.00 42 1010.0
20260502222559 59 47 1.0 4.0 0.00 0.00 0.00 44 1010.0
20260502222059 59 342 2.0 4.0 0.00 0.00 0.00 43 1010.0
20260502221558 59 360 1.0 6.0 0.00 0.00 0.00 43 1009.9
20260502221058 59 17 0.0 6.0 0.00 0.00 0.00 43 1009.9
20260502220558 59 329 1.0 5.0 0.00 0.00 0.00 43 1009.8
20260502215559 59 38 1.0 4.0 0.00 0.00 0.00 45 1009.9
20260502215056 59 19 1.0 4.0 0.00 0.00 0.00 45 1010.0
20260502214555 59 355 1.0 6.0 0.00 0.00 0.00 45 1010.0
20260502214057 60 65 2.0 6.0 0.00 0.00 0.00 44 1009.9
20260502213555 60 63 1.0 5.0 0.00 0.00 0.00 46 1010.0
20260502213055 60 24 1.0 5.0 0.00 0.00 0.00 45 1009.9
20260502212558 60 347 1.0 4.0 0.00 0.00 0.00 44 1009.8
20260502212055 60 348 2.0 6.0 0.00 0.00 0.00 44 1009.9
20260502211555 60 23 2.0 6.0 0.00 0.00 0.00 44 1009.8
20260502211054 60 28 2.0 6.0 0.00 0.00 0.00 45 1009.7
20260502210556 60 27 1.0 7.0 0.00 0.00 0.00 45 1009.6
20260502210054 60 277 2.0 7.0 0.00 0.00 0.00 46 1009.6
20260502205557 60 35 2.0 6.0 0.00 0.00 0.00 46 1009.6
20260502205055 60 271 2.0 6.0 0.00 0.00 0.00 45 1009.7
20260502204558 60 348 0.0 6.0 0.00 0.00 0.00 46 1009.7
20260502204052 60 10 3.0 6.0 0.00 0.00 0.00 47 1009.6
20260502203551 60 5 0.0 3.0 0.00 0.00 0.00 49 1009.7
20260502203116 60 33 1.0 5.0 0.00 0.00 0.00 48 1009.7
20260502202551 60 283 2.0 7.0 0.00 0.00 0.00 48 1009.7
20260502202054 60 21 2.0 9.0 0.00 0.00 0.00 49 1009.6
20260502201603 60 5 2.0 9.0 0.00 0.00 0.00 49 1009.7
20260502201054 60 343 1.0 10.0 0.00 0.00 0.00 49 1009.7
20260502200550 60 38 4.0 10.0 0.00 0.00 0.00 48 1009.7
20260502200058 60 31 1.0 5.0 0.00 0.00 0.00 49 1009.7
20260502195548 60 296 1.0 5.0 0.00 0.00 0.00 50 1009.8
20260502195047 60 294 1.0 5.0 0.00 0.00 0.00 50 1010.0
20260502194547 60 344 1.0 6.0 0.00 0.00 0.00 49 1010.1
20260502194047 60 301 3.0 8.0 0.00 0.00 0.00 49 1010.1
20260502193546 60 298 2.0 8.0 0.00 0.00 0.00 50 1010.1
20260502193058 61 279 1.0 6.0 0.00 0.00 0.00 47 1010.1
20260502192544 61 39 1.0 9.0 0.00 0.00 0.00 49 1010.3
20260502192044 61 355 3.0 9.0 0.00 0.00 0.00 50 1010.4
20260502191545 61 273 1.0 6.0 0.00 0.00 0.00 50 1010.4
20260502191043 61 329 1.0 8.0 0.00 0.00 0.00 53 1010.5
20260502190542 61 205 2.0 8.0 0.00 0.00 0.00 52 1010.5
20260502190045 61 271 1.0 8.0 0.00 0.00 0.00 53 1010.5
20260502185539 60 63 2.0 8.0 0.00 0.00 0.00 53 1010.6
20260502185038 60 355 3.0 6.0 0.00 0.00 0.00 56 1010.8
20260502184545 59 350 0.0 8.0 0.00 0.00 0.00 57 1010.8
20260502184036 59 13 2.0 8.0 0.00 0.00 0.00 56 1010.9
20260502183535 59 332 1.0 9.0 0.00 0.00 0.00 57 1011.1
20260502183035 58 39 2.0 9.0 0.00 0.00 0.00 60 1011.1
20260502182534 58 133 1.0 9.0 0.00 0.00 0.00 59 1011.1
20260502182035 58 317 2.0 10.0 0.00 0.00 0.00 59 1011.2
20260502181536 59 306 1.0 8.0 0.00 0.00 0.00 59 1011.3
20260502181034 59 333 2.0 8.0 0.00 0.00 0.00 57 1011.2
20260502180534 59 336 3.0 8.0 0.00 0.00 0.00 57 1011.4
20260502164026 58 342 1.0 6.0 0.00 0.00 0.00 58 1011.7
20260502163526 58 310 1.0 6.0 0.00 0.00 0.00 58 1011.7
20260502163025 58 290 1.0 6.0 0.00 0.00 0.00 58 1011.9
20260502162527 58 318 1.0 6.0 0.00 0.00 0.00 58 1011.8
20260502162026 58 236 1.0 6.0 0.00 0.00 0.00 58 1011.9
20260502161524 58 117 1.0 6.0 0.00 0.00 0.00 57 1012.0
20260502161024 58 39 3.0 6.0 0.00 0.00 0.00 55 1012.1
20260502160523 59 296 2.0 5.0 0.00 0.00 0.00 57 1012.1
20260502152017 57 315 1.0 6.0 0.00 0.00 0.00 65 1011.9
20260502151515 57 360 2.0 6.0 0.00 0.00 0.00 66 1012.0
20260502151016 56 5 0.0 5.0 0.00 0.00 0.00 67 1012.1
20260502150514 56 261 1.0 6.0 0.00 0.00 0.00 65 1012.0
20260502130501 55 35 1.0 10.0 0.00 0.00 0.00 72 1012.3
20260502123556 53 302 2.0 9.0 0.00 0.00 0.00 76 1012.3
20260502123056 53 17 2.0 9.0 0.00 0.00 0.00 76 1012.3
20260502122554 53 261 1.0 10.0 0.00 0.00 0.00 77 1012.3
20260502122054 53 360 2.0 10.0 0.00 0.00 0.00 77 1012.4
20260502121553 53 302 2.0 9.0 0.00 0.00 0.00 78 1012.5
20260502121052 53 40 2.0 9.0 0.00 0.00 0.00 78 1012.5
20260502120551 53 293 3.0 8.0 0.00 0.00 0.00 79 1012.4
20260502115549 52 257 1.0 5.0 0.00 0.00 0.00 80 1012.3
20260502115048 52 309 2.0 8.0 0.00 0.00 0.00 80 1012.3
20260502114548 52 331 1.0 8.0 0.00 0.00 0.00 81 1012.2
20260502114047 52 325 0.0 7.0 0.00 0.00 0.00 81 1012.3
20260502113546 51 229 1.0 7.0 0.00 0.00 0.00 82 1012.2
20260502113050 51 265 1.0 4.0 0.00 0.00 0.00 82 1012.2
20260502112545 51 301 1.0 4.0 0.00 0.00 0.00 82 1012.2
20260502112044 51 242 0.0 5.0 0.00 0.00 0.00 83 1012.2
20260502111542 51 319 0.0 5.0 0.00 0.00 0.00 83 1012.2
20260502111042 51 308 1.0 7.0 0.00 0.00 0.00 83 1012.2
20260502110541 51 269 2.0 7.0 0.00 0.00 0.00 83 1012.2
20260502110043 51 263 0.0 3.0 0.00 0.00 0.00 84 1012.2
20260502105541 51 254 0.0 3.0 0.00 0.00 0.00 84 1012.1
20260502105038 51 259 0.0 4.0 0.00 0.00 0.00 84 1012.1
20260502104539 50 261 0.0 3.0 0.00 0.00 0.00 85 1012.0
20260502104036 50 265 1.0 4.0 0.00 0.00 0.00 85 1011.9
20260502103535 50 259 1.0 4.0 0.00 0.00 0.00 85 1011.9
20260502101601 50 277 0.0 2.0 0.00 0.00 0.00 84 1011.6
20260502101043 50 277 0.0 2.0 0.00 0.00 0.00 84 1011.5
20260502100543 50 277 0.0 3.0 0.00 0.00 0.00 84 1011.5
20260502091043 51 281 1.0 5.0 0.00 0.00 0.00 83 1011.7
20260502090543 51 232 2.0 5.0 0.00 0.00 0.00 84 1011.7
20260502071526 49 227 0.0 1.0 0.00 0.00 0.00 84 1011.7
20260502071028 50 223 0.0 2.0 0.00 0.00 0.00 83 1011.8
20260502070526 50 223 0.0 3.0 0.00 0.00 0.00 84 1011.7
20260502070038 50 215 1.0 3.0 0.00 0.00 0.00 84 1011.8
20260502065525 50 241 1.0 3.0 0.00 0.00 0.00 84 1012.0
20260502065028 50 264 0.0 4.0 0.00 0.00 0.00 84 1011.8
20260502064525 50 213 0.0 5.0 0.00 0.00 0.00 83 1011.7
20260502064023 50 198 2.0 5.0 0.00 0.00 0.00 83 1011.8
20260502063523 50 224 1.0 3.0 0.00 0.00 0.00 83 1012.0
20260502063029 50 222 1.0 3.0 0.00 0.00 0.00 83 1012.0
20260502062523 50 220 1.0 4.0 0.00 0.00 0.00 83 1012.1
20260502062024 50 222 2.0 5.0 0.00 0.00 0.00 84 1012.1
20260502061522 50 208 2.0 5.0 0.00 0.00 0.00 84 1012.0
20260502061021 49 202 1.0 3.0 0.00 0.00 0.00 84 1012.0
20260502060521 49 218 0.0 3.0 0.00 0.00 0.00 84 1012.0
20260502060034 49 179 0.0 4.0 0.00 0.00 0.00 83 1012.1
20260502055519 50 219 1.0 4.0 0.00 0.00 0.00 83 1012.3
20260502055019 50 195 0.0 3.0 0.00 0.00 0.00 82 1012.4
20260502054531 50 190 1.0 5.0 0.00 0.00 0.00 83 1012.4
20260502054020 50 219 3.0 5.0 0.00 0.00 0.00 83 1012.4
20260502053517 50 218 1.0 5.0 0.00 0.00 0.00 82 1012.4
20260502053017 50 207 1.0 5.0 0.00 0.00 0.00 82 1012.5
20260502052519 50 210 1.0 4.0 0.00 0.00 0.00 82 1012.5
20260502052016 50 198 2.0 4.0 0.00 0.00 0.00 82 1012.6
20260502051515 50 239 1.0 4.0 0.00 0.00 0.00 82 1012.6